{"data":{"norad_id":57329,"epoch":"2026-05-24T10:56:25.803744Z","epoch_age_seconds":112325,"freshness":"FRESH","line1":"1 57329U 23099B   26144.45585421 -.00000130  00000+0  47869-5 0  9993","line2":"2 57329  43.0024 184.5339 0001322 267.3481  92.7219 15.27576280157661","mean_motion":15.2757628,"eccentricity":0.0001322,"inclination_deg":43.0024,"raan_deg":184.5339,"arg_perigee_deg":267.3481,"mean_anomaly_deg":92.7219,"bstar":4.7869e-6,"rev_number":15766,"period_min":94.266978274892,"perigee_km":482.15318480604,"apogee_km":483.967285355,"semimajor_km":6861.1972350805,"source":"CELESTRAK","updated_at":"2026-05-25T13:38:18.285394Z"}}